GW0326 Weather Reports


time (UTC)temp
F
wind
direction
speed
knots
gust
knots
rain 1hr
in
rain 24hr
in
rain mn
in
humidity
%
barometer
mb
20260505052544 37 0 0.0 0.0 0.00 0.25 0.25 93 1013.7
20260505052044 37 0 0.0 0.0 0.00 0.25 0.25 93 1013.8
20260505051550 37 0 0.0 0.0 0.00 0.25 0.25 93 1013.8
20260505051045 37 0 0.0 0.0 0.00 0.25 0.25 93 1013.8
20260505050544 37 0 0.0 0.0 0.00 0.25 0.25 93 1013.8
20260505041555 37 0 0.0 0.0 0.01 0.25 0.25 92 1014.3
20260505041043 37 0 0.0 0.0 0.01 0.25 0.25 92 1014.5
20260505040543 38 0 0.0 0.0 0.01 0.25 0.25 92 1014.6
20260505040058 38 0 0.0 0.0 0.02 0.25 0.25 92 1014.6
20260505035544 38 0 0.0 0.0 0.03 0.25 0.25 92 1014.6
20260505035043 38 0 0.0 0.0 0.05 0.25 0.25 92 1014.6
20260505034550 38 0 0.0 0.0 0.07 0.25 0.25 92 1014.5
20260505034044 38 0 0.0 0.0 0.09 0.25 0.25 92 1014.6
20260505033543 38 0 0.0 0.9 0.11 0.25 0.25 92 1014.6
20260505033052 38 0 0.0 0.9 0.13 0.25 0.25 91 1014.6
20260505032544 38 0 0.0 0.9 0.15 0.25 0.25 91 1014.8
20260505032043 38 0 0.0 0.0 0.15 0.24 0.24 91 1014.8
20260505031554 39 0 0.0 0.0 0.17 0.24 0.24 91 1014.7
20260505031043 39 0 0.0 1.7 0.18 0.24 0.24 91 1014.6
20260505030543 39 0 0.0 1.7 0.18 0.24 0.24 90 1014.5
20260505030109 39 276 0.0 0.0 0.17 0.23 0.23 90 1014.6
20260505025544 40 0 0.0 0.0 0.17 0.22 0.22 90 1014.6
20260505025043 40 0 0.0 0.0 0.15 0.20 0.20 90 1014.6
20260505024556 41 0 0.0 0.0 0.13 0.18 0.18 90 1014.5
20260505024043 41 0 0.0 1.7 0.11 0.16 0.16 89 1014.5
20260505023543 41 0 0.0 2.6 0.10 0.14 0.14 89 1014.5
20260505023055 42 0 0.0 2.6 0.08 0.12 0.12 89 1014.5
20260505022543 42 346 0.0 0.0 0.07 0.10 0.10 88 1014.3
20260505022043 42 0 0.0 0.0 0.05 0.08 0.08 89 1014.2
20260505021554 42 0 0.0 0.0 0.05 0.07 0.07 89 1014.0
20260505021045 42 0 0.0 0.0 0.04 0.06 0.06 88 1013.9
20260505020545 42 0 0.0 2.6 0.04 0.06 0.06 88 1013.8
20260505020059 43 0 0.0 4.3 0.04 0.06 0.06 87 1013.7
20260505015546 43 0 0.9 8.7 0.03 0.05 0.05 87 1013.8
20260505015046 43 34 0.9 8.7 0.03 0.05 0.05 86 1013.7
20260505014607 43 0 2.6 8.7 0.03 0.05 0.05 85 1013.6
20260505014042 44 47 0.0 9.6 0.03 0.05 0.05 84 1013.6
20260505013544 44 0 0.9 9.6 0.02 0.04 0.04 83 1013.5
20260505013051 45 54 0.9 5.2 0.02 0.04 0.04 81 1013.3
20260505012543 45 0 0.0 1.7 0.01 0.03 0.03 78 1013.1
20260505012043 46 0 0.0 3.5 0.01 0.03 0.03 77 1013.3
20260505011545 46 0 0.0 7.0 0.00 0.02 0.02 76 1013.3
20260505011047 46 0 0.0 7.8 0.00 0.02 0.02 74 1013.3
20260505010544 47 38 2.6 7.8 0.00 0.02 0.02 72 1013.3
20260505010059 47 0 1.7 5.2 0.00 0.02 0.02 71 1013.3
20260505005551 47 36 0.9 5.2 0.00 0.02 0.02 69 1013.3
20260505005045 48 0 0.0 8.7 0.00 0.02 0.02 68 1013.4
20260505004551 48 34 3.5 8.7 0.00 0.02 0.02 66 1013.3
20260505004044 48 42 0.9 5.2 0.00 0.02 0.02 65 1013.3
20260505003544 49 57 0.0 3.5 0.00 0.02 0.02 64 1013.2
20260505003058 48 0 0.0 0.0 0.00 0.02 0.02 66 1013.1
20260505002544 48 0 0.0 0.0 0.00 0.02 0.02 66 1013.3
20260505002045 48 0 0.0 2.6 0.00 0.02 0.02 65 1013.3
20260505001550 48 0 0.0 2.6 0.00 0.02 0.02 65 1013.3
20260505001043 48 15 0.0 1.7 0.00 0.02 0.02 66 1013.3
20260505000543 48 0 0.0 0.0 0.00 0.02 0.02 67 1013.3
20260505000051 48 0 0.0 4.3 0.00 0.02 0.02 69 1013.3
20260504235545 48 0 0.0 4.3 0.00 0.02 0.02 68 1013.2
20260504235043 48 0 0.9 4.3 0.00 0.02 0.02 68 1013.3
20260504234551 48 0 0.0 0.0 0.00 0.02 0.02 69 1013.1
20260504234047 47 0 0.0 0.0 0.00 0.02 0.02 70 1013.2
20260504233548 47 0 0.0 0.0 0.00 0.02 0.02 71 1013.2
20260504233057 47 0 0.0 0.0 0.00 0.02 0.02 71 1013.4
20260504232543 47 0 0.0 0.0 0.01 0.02 0.02 73 1013.4
20260504232044 47 0 0.0 0.0 0.01 0.02 0.02 73 1013.4
20260504231549 47 0 0.0 0.0 0.01 0.02 0.02 75 1013.3
20260504231044 47 0 0.0 0.0 0.02 0.02 0.02 75 1013.2
20260504230544 47 0 0.0 0.9 0.02 0.02 0.02 73 1013.1
20260504230049 47 0 0.0 0.9 0.02 0.02 0.02 74 1012.8
20260504225543 47 0 0.0 0.9 0.02 0.02 0.02 76 1012.8
20260504225044 47 0 0.0 0.0 0.02 0.02 0.02 79 1013.1
20260504224547 47 0 0.0 0.0 0.02 0.02 0.02 79 1013.2
20260504224048 47 0 0.0 0.0 0.02 0.02 0.02 78 1013.4
20260504223547 47 0 0.0 0.0 0.02 0.02 0.02 81 1013.6
20260504223104 47 0 0.0 0.0 0.02 0.02 0.02 80 1013.7
20260504222544 47 0 0.0 0.9 0.01 0.01 0.01 76 1013.8
20260504222044 48 0 0.0 0.9 0.01 0.01 0.01 73 1014.0
20260504221548 49 0 0.0 2.6 0.01 0.01 0.01 70 1014.0
20260504221045 50 0 0.0 2.6 0.00 0.00 0.00 65 1013.7
20260504220545 50 0 0.0 7.0 0.00 0.00 0.00 59 1013.8
20260504220048 50 0 0.0 7.0 0.00 0.00 0.00 53 1013.4
20260504215547 51 56 0.0 10.4 0.00 0.00 0.00 52 1012.9
20260504215043 51 0 0.0 12.2 0.00 0.00 0.00 51 1012.8
20260504214545 51 39 2.6 13.0 0.00 0.00 0.00 50 1012.5
20260504214045 52 35 7.0 13.0 0.00 0.00 0.00 48 1012.2
20260504213543 52 270 4.3 19.1 0.00 0.00 0.00 47 1012.3
20260504213055 53 26 4.3 19.1 0.00 0.00 0.00 46 1012.3
20260504212547 53 42 3.5 13.0 0.00 0.00 0.00 45 1012.4
20260504212045 54 56 7.0 16.5 0.00 0.00 0.00 43 1012.2
20260504211649 55 26 6.1 16.5 0.00 0.00 0.00 41 1012.3
20260504211044 56 28 8.7 14.8 0.00 0.00 0.00 39 1012.2
20260504210545 57 15 2.6 15.6 0.00 0.00 0.00 36 1012.2
20260504210052 58 18 7.8 15.6 0.00 0.00 0.00 34 1012.2
20260504205543 60 49 0.9 5.2 0.00 0.00 0.00 27 1012.3
20260504205044 60 0 0.9 5.2 0.00 0.00 0.00 29 1012.1
20260504204556 60 49 1.7 5.2 0.00 0.00 0.00 31 1012.1
20260504204045 60 0 1.7 5.2 0.00 0.00 0.00 31 1012.1
20260504203544 60 0 0.9 5.2 0.00 0.00 0.00 32 1012.3
20260504203107 59 0 0.0 4.3 0.00 0.00 0.00 33 1012.3
20260504202545 58 0 0.0 4.3 0.00 0.00 0.00 33 1012.5
20260504202045 58 327 0.0 5.2 0.00 0.00 0.00 33 1012.4
20260504201552 57 0 0.0 5.2 0.00 0.00 0.00 36 1012.6
20260504201044 57 278 0.9 7.0 0.00 0.00 0.00 36 1012.6
20260504200543 56 0 1.7 7.0 0.00 0.00 0.00 37 1012.8
20260504200053 56 0 0.9 8.7 0.00 0.00 0.00 37 1013.0
20260504195544 56 215 1.7 9.6 0.00 0.00 0.00 36 1013.0
20260504195044 56 202 3.5 13.9 0.00 0.00 0.00 36 1013.1
20260504194555 56 235 6.1 15.6 0.00 0.00 0.00 36 1013.0
20260504194044 57 182 3.5 15.6 0.00 0.00 0.00 33 1012.8
20260504193545 58 278 4.3 15.6 0.00 0.00 0.00 33 1012.9
20260504193051 58 0 0.9 13.9 0.00 0.00 0.00 33 1013.0
20260504192543 59 198 0.9 13.9 0.00 0.00 0.00 33 1013.0
20260504192045 59 194 3.5 13.9 0.00 0.00 0.00 32 1013.0
20260504191607 60 238 2.6 12.2 0.00 0.00 0.00 29 1013.1
20260504191044 61 179 2.6 12.2 0.00 0.00 0.00 28 1012.9
20260504190544 61 267 2.6 9.6 0.00 0.00 0.00 30 1012.9
20260504190105 61 250 0.9 7.8 0.00 0.00 0.00 31 1012.9
20260504185544 61 303 0.9 6.1 0.00 0.00 0.00 32 1013.0
20260504185043 60 263 2.6 7.8 0.00 0.00 0.00 31 1013.0
20260504184552 60 279 1.7 7.8 0.00 0.00 0.00 32 1013.1
20260504184043 61 228 1.7 7.0 0.00 0.00 0.00 32 1013.1
20260504183546 61 275 0.9 6.1 0.00 0.00 0.00 33 1013.1
20260504183048 61 201 0.0 5.2 0.00 0.00 0.00 34 1013.1
20260504182545 60 0 1.7 5.2 0.00 0.00 0.00 32 1013.1
20260504182043 60 0 0.9 7.8 0.00 0.00 0.00 32 1013.2
20260504181553 60 0 0.9 7.8 0.00 0.00 0.00 32 1013.3
20260504181045 60 0 0.9 5.2 0.00 0.00 0.00 32 1013.4
20260504180544 61 318 0.0 7.0 0.00 0.00 0.00 32 1013.4
20260504180054 60 350 0.0 7.0 0.00 0.00 0.00 33 1013.4
20260504175544 60 0 0.9 6.1 0.00 0.00 0.00 34 1013.6
20260504175046 59 355 0.9 6.1 0.00 0.00 0.00 34 1013.6
20260504174549 59 240 1.7 10.4 0.00 0.00 0.00 34 1013.8
20260504174046 58 255 1.7 10.4 0.00 0.00 0.00 34 1013.8
20260504173544 58 0 0.0 7.0 0.00 0.00 0.00 35 1013.9
20260504173057 58 225 1.7 7.0 0.00 0.00 0.00 34 1014.1
20260504172544 57 254 0.0 5.2 0.00 0.00 0.00 37 1014.1
20260504172044 57 0 0.0 5.2 0.00 0.00 0.00 37 1014.1
20260504171554 57 360 0.0 8.7 0.00 0.00 0.00 36 1014.1
20260504171043 56 0 0.9 8.7 0.00 0.00 0.00 37 1014.1
20260504170545 56 0 0.0 0.9 0.00 0.00 0.00 38 1014.2
20260504151047 52 360 0.9 6.1 0.00 0.00 0.00 42 1014.3
20260504150548 51 216 0.9 6.1 0.00 0.00 0.00 42 1014.4
20260504141044 51 0 3.5 10.4 0.00 0.00 0.00 40 1014.4
20260504140548 51 0 2.6 10.4 0.00 0.00 0.00 39 1014.3
20260504130548 45 0 0.0 0.9 0.00 0.00 0.00 42 1014.3
20260504110544 46 290 0.0 3.5 0.00 0.00 0.00 33 1013.8
20260504100544 45 0 0.9 3.5 0.00 0.00 0.00 38 1014.0
20260504081553 45 285 0.9 2.6 0.00 0.00 0.00 41 1014.9
20260504081047 45 285 0.9 3.5 0.00 0.00 0.00 42 1014.9
20260504080545 45 285 0.9 3.5 0.00 0.00 0.00 42 1015.1